owner,sensor,date,latitude,longitude,vertical_datum,sea_water_practical_salinity,qcFlag 
LUMCON,ioos:station:LUMCON:101:1,2015-05-01T00:00:00Z,29.2533,-90.6633,1.27,2.54,1111122 
LUMCON,ioos:station:LUMCON:101:1,2015-05-01T00:15:00Z,29.2533,-90.6633,1.27,2.58,1111122 
LUMCON,ioos:station:LUMCON:101:1,2015-05-01T00:30:00Z,29.2533,-90.6633,1.28,2.55,1111122 
LUMCON,ioos:station:LUMCON:101:1,2015-05-01T00:45:00Z,29.2533,-90.6633,1.28,2.54,1111122 
LUMCON,ioos:station:LUMCON:101:1,2015-05-01T01:00:00Z,29.2533,-90.6633,1.28,2.53,1111122 
LUMCON,ioos:station:LUMCON:101:1,2015-05-01T01:15:00Z,29.2533,-90.6633,1.29,2.53,1111122 
LUMCON,ioos:station:LUMCON:101:1,2015-05-01T01:30:00Z,29.2533,-90.6633,1.29,2.54,1111122 
LUMCON,ioos:station:LUMCON:101:1,2015-05-01T01:45:00Z,29.2533,-90.6633,1.29,2.56,1111122 
LUMCON,ioos:station:LUMCON:101:1,2015-05-01T02:00:00Z,29.2533,-90.6633,1.3,2.51,1111122 
LUMCON,ioos:station:LUMCON:101:1,2015-05-01T02:15:00Z,29.2533,-90.6633,1.3,2.44,1111122 
LUMCON,ioos:station:LUMCON:101:1,2015-05-01T02:30:00Z,29.2533,-90.6633,1.3,2.46,1111122 
LUMCON,ioos:station:LUMCON:101:1,2015-05-01T02:45:00Z,29.2533,-90.6633,1.31,2.4,1111122 
LUMCON,ioos:station:LUMCON:101:1,2015-05-01T03:00:00Z,29.2533,-90.6633,1.31,2.44,1111122 
LUMCON,ioos:station:LUMCON:101:1,2015-05-01T03:15:00Z,29.2533,-90.6633,1.31,2.37,1111122 
LUMCON,ioos:station:LUMCON:101:1,2015-05-01T03:30:00Z,29.2533,-90.6633,1.31,2.44,1111122 
LUMCON,ioos:station:LUMCON:101:1,2015-05-01T03:45:00Z,29.2533,-90.6633,1.31,2.39,1111122 
LUMCON,ioos:station:LUMCON:101:1,2015-05-01T04:00:00Z,29.2533,-90.6633,1.31,2.31,1111122 
LUMCON,ioos:station:LUMCON:101:1,2015-05-01T04:15:00Z,29.2533,-90.6633,1.32,2.26,1111122 
LUMCON,ioos:station:LUMCON:101:1,2015-05-01T04:30:00Z,29.2533,-90.6633,1.32,2.27,1111122 
LUMCON,ioos:station:LUMCON:101:1,2015-05-01T04:45:00Z,29.2533,-90.6633,1.32,2.22,1111122 
LUMCON,ioos:station:LUMCON:101:1,2015-05-01T05:00:00Z,29.2533,-90.6633,1.32,2.25,1111122 
LUMCON,ioos:station:LUMCON:101:1,2015-05-01T05:15:00Z,29.2533,-90.6633,1.32,2.24,1111122 
LUMCON,ioos:station:LUMCON:101:1,2015-05-01T05:30:00Z,29.2533,-90.6633,1.31,2.19,1111122 
LUMCON,ioos:station:LUMCON:101:1,2015-05-01T05:45:00Z,29.2533,-90.6633,1.31,2.16,1111122 
LUMCON,ioos:station:LUMCON:101:1,2015-05-01T06:00:00Z,29.2533,-90.6633,1.31,2.19,1111122 
LUMCON,ioos:station:LUMCON:101:1,2015-05-01T06:15:00Z,29.2533,-90.6633,1.31,2.21,1111122 
LUMCON,ioos:station:LUMCON:101:1,2015-05-01T06:30:00Z,29.2533,-90.6633,1.32,2.29,1111122 
LUMCON,ioos:station:LUMCON:101:1,2015-05-01T06:45:00Z,29.2533,-90.6633,1.32,2.34,1111122 
LUMCON,ioos:station:LUMCON:101:1,2015-05-01T07:00:00Z,29.2533,-90.6633,1.31,2.37,1111122 
LUMCON,ioos:station:LUMCON:101:1,2015-05-01T07:15:00Z,29.2533,-90.6633,1.31,2.43,1111122 
LUMCON,ioos:station:LUMCON:101:1,2015-05-01T07:30:00Z,29.2533,-90.6633,1.31,2.46,1111122 
LUMCON,ioos:station:LUMCON:101:1,2015-05-01T07:45:00Z,29.2533,-90.6633,1.31,2.5,1111122 
LUMCON,ioos:station:LUMCON:101:1,2015-05-01T08:00:00Z,29.2533,-90.6633,1.32,2.53,1111122 
LUMCON,ioos:station:LUMCON:101:1,2015-05-01T08:30:00Z,29.2533,-90.6633,1.31,2.51,1111122 
LUMCON,ioos:station:LUMCON:101:1,2015-05-01T08:45:00Z,29.2533,-90.6633,1.31,2.51,1111122 
LUMCON,ioos:station:LUMCON:101:1,2015-05-01T09:00:00Z,29.2533,-90.6633,1.31,2.51,1111122 
LUMCON,ioos:station:LUMCON:101:1,2015-05-01T09:15:00Z,29.2533,-90.6633,1.3,2.51,1111122 
LUMCON,ioos:station:LUMCON:101:1,2015-05-01T09:30:00Z,29.2533,-90.6633,1.3,2.5,1111122 
LUMCON,ioos:station:LUMCON:101:1,2015-05-01T09:45:00Z,29.2533,-90.6633,1.3,2.46,1111122 
LUMCON,ioos:station:LUMCON:101:1,2015-05-01T10:00:00Z,29.2533,-90.6633,1.29,2.41,1111122 
LUMCON,ioos:station:LUMCON:101:1,2015-05-01T10:15:00Z,29.2533,-90.6633,1.28,2.34,1111122 
LUMCON,ioos:station:LUMCON:101:1,2015-05-01T10:30:00Z,29.2533,-90.6633,1.28,2.28,1111122 
LUMCON,ioos:station:LUMCON:101:1,2015-05-01T10:45:00Z,29.2533,-90.6633,1.28,2.22,1111122 
LUMCON,ioos:station:LUMCON:101:1,2015-05-01T11:00:00Z,29.2533,-90.6633,1.29,2.19,1111122 
LUMCON,ioos:station:LUMCON:101:1,2015-05-01T11:15:00Z,29.2533,-90.6633,1.3,2.17,1111122 
LUMCON,ioos:station:LUMCON:101:1,2015-05-01T11:30:00Z,29.2533,-90.6633,1.3,2.13,1111122 
LUMCON,ioos:station:LUMCON:101:1,2015-05-01T11:45:00Z,29.2533,-90.6633,1.3,2.11,1111122 
LUMCON,ioos:station:LUMCON:101:1,2015-05-01T12:00:00Z,29.2533,-90.6633,1.3,2.12,1111122 
LUMCON,ioos:station:LUMCON:101:1,2015-05-01T12:15:00Z,29.2533,-90.6633,1.31,2.15,1111122 
LUMCON,ioos:station:LUMCON:101:1,2015-05-01T12:30:00Z,29.2533,-90.6633,1.31,2.14,1111122 
LUMCON,ioos:station:LUMCON:101:1,2015-05-01T12:45:00Z,29.2533,-90.6633,1.31,2.17,1111122 
LUMCON,ioos:station:LUMCON:101:1,2015-05-01T13:00:00Z,29.2533,-90.6633,1.32,2.18,1111122 
LUMCON,ioos:station:LUMCON:101:1,2015-05-01T13:15:00Z,29.2533,-90.6633,1.32,2.16,1111122 
LUMCON,ioos:station:LUMCON:101:1,2015-05-01T13:30:00Z,29.2533,-90.6633,1.32,2.19,1111122 
LUMCON,ioos:station:LUMCON:101:1,2015-05-01T13:45:00Z,29.2533,-90.6633,1.32,2.16,1111122 
LUMCON,ioos:station:LUMCON:101:1,2015-05-01T14:00:00Z,29.2533,-90.6633,1.32,2.15,1111122 
LUMCON,ioos:station:LUMCON:101:1,2015-05-01T14:15:00Z,29.2533,-90.6633,1.32,2.16,1111122 
LUMCON,ioos:station:LUMCON:101:1,2015-05-01T14:30:00Z,29.2533,-90.6633,1.32,2.11,1111122 
LUMCON,ioos:station:LUMCON:101:1,2015-05-01T14:45:00Z,29.2533,-90.6633,1.32,2.09,1111122 
LUMCON,ioos:station:LUMCON:101:1,2015-05-01T15:00:00Z,29.2533,-90.6633,1.31,2.02,1111122 
LUMCON,ioos:station:LUMCON:101:1,2015-05-01T15:15:00Z,29.2533,-90.6633,1.31,1.9,1111122 
LUMCON,ioos:station:LUMCON:101:1,2015-05-01T15:30:00Z,29.2533,-90.6633,1.3,1.89,1111122 
LUMCON,ioos:station:LUMCON:101:1,2015-05-01T15:45:00Z,29.2533,-90.6633,1.3,1.91,1111122 
LUMCON,ioos:station:LUMCON:101:1,2015-05-01T16:00:00Z,29.2533,-90.6633,1.29,1.89,1111122 
LUMCON,ioos:station:LUMCON:101:1,2015-05-01T16:15:00Z,29.2533,-90.6633,1.28,1.93,1111122 
LUMCON,ioos:station:LUMCON:101:1,2015-05-01T16:30:00Z,29.2533,-90.6633,1.28,1.96,1111122 
LUMCON,ioos:station:LUMCON:101:1,2015-05-01T16:45:00Z,29.2533,-90.6633,1.28,1.97,1111122 
LUMCON,ioos:station:LUMCON:101:1,2015-05-01T17:00:00Z,29.2533,-90.6633,1.27,1.98,1111122 
LUMCON,ioos:station:LUMCON:101:1,2015-05-01T17:15:00Z,29.2533,-90.6633,1.26,1.98,1111122 
LUMCON,ioos:station:LUMCON:101:1,2015-05-01T17:30:00Z,29.2533,-90.6633,1.26,1.98,1111122 
LUMCON,ioos:station:LUMCON:101:1,2015-05-01T17:45:00Z,29.2533,-90.6633,1.25,1.99,1111122 
LUMCON,ioos:station:LUMCON:101:1,2015-05-01T18:00:00Z,29.2533,-90.6633,1.24,2.01,1111122 
LUMCON,ioos:station:LUMCON:101:1,2015-05-01T18:15:00Z,29.2533,-90.6633,1.24,2.03,1111122 
LUMCON,ioos:station:LUMCON:101:1,2015-05-01T18:30:00Z,29.2533,-90.6633,1.23,2.04,1111122 
LUMCON,ioos:station:LUMCON:101:1,2015-05-01T18:45:00Z,29.2533,-90.6633,1.22,2.08,1111122 
LUMCON,ioos:station:LUMCON:101:1,2015-05-01T19:00:00Z,29.2533,-90.6633,1.21,2.11,1111122 
LUMCON,ioos:station:LUMCON:101:1,2015-05-01T19:15:00Z,29.2533,-90.6633,1.2,2.13,1111122 
LUMCON,ioos:station:LUMCON:101:1,2015-05-01T19:30:00Z,29.2533,-90.6633,1.19,2.18,1111122 
LUMCON,ioos:station:LUMCON:101:1,2015-05-01T19:45:00Z,29.2533,-90.6633,1.19,2.18,1111122 
LUMCON,ioos:station:LUMCON:101:1,2015-05-01T20:00:00Z,29.2533,-90.6633,1.19,2.19,1111122 
LUMCON,ioos:station:LUMCON:101:1,2015-05-01T20:15:00Z,29.2533,-90.6633,1.18,2.22,1111122 
LUMCON,ioos:station:LUMCON:101:1,2015-05-01T20:30:00Z,29.2533,-90.6633,1.18,2.24,1111122 
LUMCON,ioos:station:LUMCON:101:1,2015-05-01T20:45:00Z,29.2533,-90.6633,1.18,2.27,1111122 
LUMCON,ioos:station:LUMCON:101:1,2015-05-01T21:00:00Z,29.2533,-90.6633,1.17,2.32,1111122 
LUMCON,ioos:station:LUMCON:101:1,2015-05-01T21:15:00Z,29.2533,-90.6633,1.17,2.36,1111122 
LUMCON,ioos:station:LUMCON:101:1,2015-05-01T21:30:00Z,29.2533,-90.6633,1.18,2.37,1111122 
LUMCON,ioos:station:LUMCON:101:1,2015-05-01T21:45:00Z,29.2533,-90.6633,1.17,2.38,1111122 
LUMCON,ioos:station:LUMCON:101:1,2015-05-01T22:00:00Z,29.2533,-90.6633,1.19,2.4,1111122 
LUMCON,ioos:station:LUMCON:101:1,2015-05-01T22:15:00Z,29.2533,-90.6633,1.19,2.44,1111122 
LUMCON,ioos:station:LUMCON:101:1,2015-05-01T22:30:00Z,29.2533,-90.6633,1.19,2.46,1111122 
LUMCON,ioos:station:LUMCON:101:1,2015-05-01T22:45:00Z,29.2533,-90.6633,1.2,2.46,1111122 
LUMCON,ioos:station:LUMCON:101:1,2015-05-01T23:00:00Z,29.2533,-90.6633,1.2,2.37,1111122 
LUMCON,ioos:station:LUMCON:101:1,2015-05-01T23:15:00Z,29.2533,-90.6633,1.21,2.31,1111122 
LUMCON,ioos:station:LUMCON:101:1,2015-05-01T23:30:00Z,29.2533,-90.6633,1.22,2.26,1111122 
LUMCON,ioos:station:LUMCON:101:1,2015-05-01T23:45:00Z,29.2533,-90.6633,1.23,2.21,1111122 
LUMCON,ioos:station:LUMCON:101:1,2015-05-02T00:00:00Z,29.2533,-90.6633,1.24,2.16,1111122 
LUMCON,ioos:station:LUMCON:101:1,2015-05-02T00:15:00Z,29.2533,-90.6633,1.25,2.05,1111122 
LUMCON,ioos:station:LUMCON:101:1,2015-05-02T00:30:00Z,29.2533,-90.6633,1.25,2.04,1111122 
LUMCON,ioos:station:LUMCON:101:1,2015-05-02T00:45:00Z,29.2533,-90.6633,1.26,1.76,1111122 
LUMCON,ioos:station:LUMCON:101:1,2015-05-02T01:00:00Z,29.2533,-90.6633,1.26,1.64,1111122 
LUMCON,ioos:station:LUMCON:101:1,2015-05-02T01:15:00Z,29.2533,-90.6633,1.27,1.66,1111122 
LUMCON,ioos:station:LUMCON:101:1,2015-05-02T01:30:00Z,29.2533,-90.6633,1.28,1.49,1111122 
LUMCON,ioos:station:LUMCON:101:1,2015-05-02T01:45:00Z,29.2533,-90.6633,1.29,1.48,1111122 
LUMCON,ioos:station:LUMCON:101:1,2015-05-02T02:00:00Z,29.2533,-90.6633,1.3,1.5,1111122 
LUMCON,ioos:station:LUMCON:101:1,2015-05-02T02:15:00Z,29.2533,-90.6633,1.31,1.5,1111122 
LUMCON,ioos:station:LUMCON:101:1,2015-05-02T02:30:00Z,29.2533,-90.6633,1.32,1.53,1111122 
LUMCON,ioos:station:LUMCON:101:1,2015-05-02T02:45:00Z,29.2533,-90.6633,1.33,1.51,1111122 
LUMCON,ioos:station:LUMCON:101:1,2015-05-02T03:00:00Z,29.2533,-90.6633,1.34,1.52,1111122 
LUMCON,ioos:station:LUMCON:101:1,2015-05-02T03:15:00Z,29.2533,-90.6633,1.34,1.62,1111122 
LUMCON,ioos:station:LUMCON:101:1,2015-05-02T03:30:00Z,29.2533,-90.6633,1.35,1.61,1111122 
LUMCON,ioos:station:LUMCON:101:1,2015-05-02T03:45:00Z,29.2533,-90.6633,1.35,1.61,1111122 
LUMCON,ioos:station:LUMCON:101:1,2015-05-02T04:00:00Z,29.2533,-90.6633,1.35,1.57,1111122 
LUMCON,ioos:station:LUMCON:101:1,2015-05-02T04:15:00Z,29.2533,-90.6633,1.36,1.57,1111122 
LUMCON,ioos:station:LUMCON:101:1,2015-05-02T04:30:00Z,29.2533,-90.6633,1.36,1.55,1111122 
LUMCON,ioos:station:LUMCON:101:1,2015-05-02T04:45:00Z,29.2533,-90.6633,1.37,1.6,1111122 
LUMCON,ioos:station:LUMCON:101:1,2015-05-02T05:00:00Z,29.2533,-90.6633,1.37,1.59,1111122 
LUMCON,ioos:station:LUMCON:101:1,2015-05-02T05:15:00Z,29.2533,-90.6633,1.38,1.64,1111122 
LUMCON,ioos:station:LUMCON:101:1,2015-05-02T05:30:00Z,29.2533,-90.6633,1.38,1.61,1111122 
LUMCON,ioos:station:LUMCON:101:1,2015-05-02T05:45:00Z,29.2533,-90.6633,1.39,1.62,1111122 
LUMCON,ioos:station:LUMCON:101:1,2015-05-02T06:00:00Z,29.2533,-90.6633,1.39,1.56,1111122 
LUMCON,ioos:station:LUMCON:101:1,2015-05-02T06:15:00Z,29.2533,-90.6633,1.4,1.5,1111122 
LUMCON,ioos:station:LUMCON:101:1,2015-05-02T06:30:00Z,29.2533,-90.6633,1.4,1.47,1111122 
LUMCON,ioos:station:LUMCON:101:1,2015-05-02T06:45:00Z,29.2533,-90.6633,1.4,1.47,1111122 
LUMCON,ioos:station:LUMCON:101:1,2015-05-02T07:00:00Z,29.2533,-90.6633,1.41,1.45,1111122 
LUMCON,ioos:station:LUMCON:101:1,2015-05-02T07:15:00Z,29.2533,-90.6633,1.42,1.56,1111122 
LUMCON,ioos:station:LUMCON:101:1,2015-05-02T07:30:00Z,29.2533,-90.6633,1.42,1.69,1111122 
LUMCON,ioos:station:LUMCON:101:1,2015-05-02T07:45:00Z,29.2533,-90.6633,1.42,1.84,1111122 
LUMCON,ioos:station:LUMCON:101:1,2015-05-02T08:00:00Z,29.2533,-90.6633,1.43,1.83,1111122 
LUMCON,ioos:station:LUMCON:101:1,2015-05-02T08:15:00Z,29.2533,-90.6633,1.43,1.81,1111122 
LUMCON,ioos:station:LUMCON:101:1,2015-05-02T08:30:00Z,29.2533,-90.6633,1.43,1.94,1111122 
LUMCON,ioos:station:LUMCON:101:1,2015-05-02T08:45:00Z,29.2533,-90.6633,1.44,1.97,1111122 
LUMCON,ioos:station:LUMCON:101:1,2015-05-02T09:00:00Z,29.2533,-90.6633,1.44,2.05,1111122 
LUMCON,ioos:station:LUMCON:101:1,2015-05-02T09:15:00Z,29.2533,-90.6633,1.44,2.05,1111122 
LUMCON,ioos:station:LUMCON:101:1,2015-05-02T09:30:00Z,29.2533,-90.6633,1.44,2.05,1111122 
LUMCON,ioos:station:LUMCON:101:1,2015-05-02T09:45:00Z,29.2533,-90.6633,1.44,2.08,1111122 
LUMCON,ioos:station:LUMCON:101:1,2015-05-02T10:00:00Z,29.2533,-90.6633,1.44,2.08,1111122 
LUMCON,ioos:station:LUMCON:101:1,2015-05-02T10:15:00Z,29.2533,-90.6633,1.45,2.07,1111122 
LUMCON,ioos:station:LUMCON:101:1,2015-05-02T10:30:00Z,29.2533,-90.6633,1.45,2.08,1111122 
LUMCON,ioos:station:LUMCON:101:1,2015-05-02T10:45:00Z,29.2533,-90.6633,1.46,2.08,1111122 
LUMCON,ioos:station:LUMCON:101:1,2015-05-02T11:00:00Z,29.2533,-90.6633,1.46,2.09,1111122 
LUMCON,ioos:station:LUMCON:101:1,2015-05-02T11:15:00Z,29.2533,-90.6633,1.46,2.1,1111122 
LUMCON,ioos:station:LUMCON:101:1,2015-05-02T11:30:00Z,29.2533,-90.6633,1.46,2.1,1111122 
LUMCON,ioos:station:LUMCON:101:1,2015-05-02T11:45:00Z,29.2533,-90.6633,1.47,2.11,1111122 
LUMCON,ioos:station:LUMCON:101:1,2015-05-02T12:00:00Z,29.2533,-90.6633,1.47,2.1,1111122 
LUMCON,ioos:station:LUMCON:101:1,2015-05-02T12:15:00Z,29.2533,-90.6633,1.47,2.1,1111122 
LUMCON,ioos:station:LUMCON:101:1,2015-05-02T12:30:00Z,29.2533,-90.6633,1.47,2.1,1111122 
LUMCON,ioos:station:LUMCON:101:1,2015-05-02T12:45:00Z,29.2533,-90.6633,1.47,2.11,1111122 
LUMCON,ioos:station:LUMCON:101:1,2015-05-02T13:00:00Z,29.2533,-90.6633,1.47,2.11,1111122 
LUMCON,ioos:station:LUMCON:101:1,2015-05-02T13:15:00Z,29.2533,-90.6633,1.46,2.12,1111122 
LUMCON,ioos:station:LUMCON:101:1,2015-05-02T13:30:00Z,29.2533,-90.6633,1.45,2.09,1111122 
LUMCON,ioos:station:LUMCON:101:1,2015-05-02T13:45:00Z,29.2533,-90.6633,1.45,2.07,1111122 
LUMCON,ioos:station:LUMCON:101:1,2015-05-02T14:00:00Z,29.2533,-90.6633,1.44,2.04,1111122 
LUMCON,ioos:station:LUMCON:101:1,2015-05-02T14:15:00Z,29.2533,-90.6633,1.43,1.98,1111122 
LUMCON,ioos:station:LUMCON:101:1,2015-05-02T14:30:00Z,29.2533,-90.6633,1.43,1.94,1111122 
LUMCON,ioos:station:LUMCON:101:1,2015-05-02T14:45:00Z,29.2533,-90.6633,1.42,1.93,1111122 
LUMCON,ioos:station:LUMCON:101:1,2015-05-02T15:00:00Z,29.2533,-90.6633,1.41,1.93,1111122 
LUMCON,ioos:station:LUMCON:101:1,2015-05-02T15:15:00Z,29.2533,-90.6633,1.4,1.92,1111122 
LUMCON,ioos:station:LUMCON:101:1,2015-05-02T15:30:00Z,29.2533,-90.6633,1.39,1.93,1111122 
LUMCON,ioos:station:LUMCON:101:1,2015-05-02T15:45:00Z,29.2533,-90.6633,1.38,1.92,1111122 
LUMCON,ioos:station:LUMCON:101:1,2015-05-02T16:00:00Z,29.2533,-90.6633,1.37,1.92,1111122 
LUMCON,ioos:station:LUMCON:101:1,2015-05-02T16:15:00Z,29.2533,-90.6633,1.37,1.91,1111122 
LUMCON,ioos:station:LUMCON:101:1,2015-05-02T16:30:00Z,29.2533,-90.6633,1.35,1.87,1111122 
LUMCON,ioos:station:LUMCON:101:1,2015-05-02T16:45:00Z,29.2533,-90.6633,1.34,1.86,1111122 
LUMCON,ioos:station:LUMCON:101:1,2015-05-02T17:00:00Z,29.2533,-90.6633,1.33,1.85,1111122 
LUMCON,ioos:station:LUMCON:101:1,2015-05-02T17:15:00Z,29.2533,-90.6633,1.32,1.83,1111122 
LUMCON,ioos:station:LUMCON:101:1,2015-05-02T17:30:00Z,29.2533,-90.6633,1.31,1.81,1111122 
LUMCON,ioos:station:LUMCON:101:1,2015-05-02T17:45:00Z,29.2533,-90.6633,1.31,1.8,1111122 
LUMCON,ioos:station:LUMCON:101:1,2015-05-02T18:00:00Z,29.2533,-90.6633,1.29,1.79,1111122 
LUMCON,ioos:station:LUMCON:101:1,2015-05-02T18:15:00Z,29.2533,-90.6633,1.28,1.8,1111122 
LUMCON,ioos:station:LUMCON:101:1,2015-05-02T18:30:00Z,29.2533,-90.6633,1.27,1.81,1111122 
LUMCON,ioos:station:LUMCON:101:1,2015-05-02T18:45:00Z,29.2533,-90.6633,1.26,1.85,1111122 
LUMCON,ioos:station:LUMCON:101:1,2015-05-02T19:00:00Z,29.2533,-90.6633,1.25,1.89,1111122 
LUMCON,ioos:station:LUMCON:101:1,2015-05-02T19:15:00Z,29.2533,-90.6633,1.24,1.96,1111122 
LUMCON,ioos:station:LUMCON:101:1,2015-05-02T19:30:00Z,29.2533,-90.6633,1.24,2.0,1111122 
LUMCON,ioos:station:LUMCON:101:1,2015-05-02T19:45:00Z,29.2533,-90.6633,1.24,2.05,1111122 
LUMCON,ioos:station:LUMCON:101:1,2015-05-02T20:00:00Z,29.2533,-90.6633,1.23,2.11,1111122 
LUMCON,ioos:station:LUMCON:101:1,2015-05-02T20:15:00Z,29.2533,-90.6633,1.23,2.15,1111122 
LUMCON,ioos:station:LUMCON:101:1,2015-05-02T20:30:00Z,29.2533,-90.6633,1.22,2.18,1111122 
LUMCON,ioos:station:LUMCON:101:1,2015-05-02T20:45:00Z,29.2533,-90.6633,1.22,2.21,1111122 
LUMCON,ioos:station:LUMCON:101:1,2015-05-02T21:00:00Z,29.2533,-90.6633,1.22,2.24,1111122 
LUMCON,ioos:station:LUMCON:101:1,2015-05-02T21:15:00Z,29.2533,-90.6633,1.22,2.23,1111122 
LUMCON,ioos:station:LUMCON:101:1,2015-05-02T21:30:00Z,29.2533,-90.6633,1.22,2.25,1111122 
LUMCON,ioos:station:LUMCON:101:1,2015-05-02T21:45:00Z,29.2533,-90.6633,1.22,2.27,1111122 
LUMCON,ioos:station:LUMCON:101:1,2015-05-02T22:00:00Z,29.2533,-90.6633,1.23,2.28,1111122 
LUMCON,ioos:station:LUMCON:101:1,2015-05-02T22:15:00Z,29.2533,-90.6633,1.23,2.3,1111122 
LUMCON,ioos:station:LUMCON:101:1,2015-05-02T22:30:00Z,29.2533,-90.6633,1.24,2.3,1111122 
LUMCON,ioos:station:LUMCON:101:1,2015-05-02T22:45:00Z,29.2533,-90.6633,1.25,2.29,1111122 
LUMCON,ioos:station:LUMCON:101:1,2015-05-02T23:00:00Z,29.2533,-90.6633,1.25,2.25,1111122 
LUMCON,ioos:station:LUMCON:101:1,2015-05-02T23:15:00Z,29.2533,-90.6633,1.26,2.24,1111122 
LUMCON,ioos:station:LUMCON:101:1,2015-05-02T23:30:00Z,29.2533,-90.6633,1.27,2.19,1111122 
LUMCON,ioos:station:LUMCON:101:1,2015-05-02T23:45:00Z,29.2533,-90.6633,1.28,2.17,1111122 
LUMCON,ioos:station:LUMCON:101:1,2015-05-03T01:00:00Z,29.2533,-90.6633,1.33,2.0,1111122 
LUMCON,ioos:station:LUMCON:101:1,2015-05-03T01:15:00Z,29.2533,-90.6633,1.34,2.03,1111122 
LUMCON,ioos:station:LUMCON:101:1,2015-05-03T01:30:00Z,29.2533,-90.6633,1.35,2.1,1111122 
LUMCON,ioos:station:LUMCON:101:1,2015-05-03T01:45:00Z,29.2533,-90.6633,1.36,2.13,1111122 
LUMCON,ioos:station:LUMCON:101:1,2015-05-03T02:00:00Z,29.2533,-90.6633,1.37,2.13,1111122 
LUMCON,ioos:station:LUMCON:101:1,2015-05-03T02:15:00Z,29.2533,-90.6633,1.39,2.12,1111122 
LUMCON,ioos:station:LUMCON:101:1,2015-05-03T02:30:00Z,29.2533,-90.6633,1.4,2.13,1111122 
LUMCON,ioos:station:LUMCON:101:1,2015-05-03T02:45:00Z,29.2533,-90.6633,1.41,2.13,1111122 
LUMCON,ioos:station:LUMCON:101:1,2015-05-03T03:00:00Z,29.2533,-90.6633,1.42,2.14,1111122 
LUMCON,ioos:station:LUMCON:101:1,2015-05-03T03:15:00Z,29.2533,-90.6633,1.43,2.15,1111122 
LUMCON,ioos:station:LUMCON:101:1,2015-05-03T03:30:00Z,29.2533,-90.6633,1.43,2.15,1111122 
LUMCON,ioos:station:LUMCON:101:1,2015-05-03T03:45:00Z,29.2533,-90.6633,1.44,2.16,1111122 
LUMCON,ioos:station:LUMCON:101:1,2015-05-03T04:00:00Z,29.2533,-90.6633,1.45,2.16,1111122 
LUMCON,ioos:station:LUMCON:101:1,2015-05-03T04:15:00Z,29.2533,-90.6633,1.45,2.17,1111122 
LUMCON,ioos:station:LUMCON:101:1,2015-05-03T04:30:00Z,29.2533,-90.6633,1.46,2.18,1111122 
LUMCON,ioos:station:LUMCON:101:1,2015-05-03T04:45:00Z,29.2533,-90.6633,1.47,2.19,1111122 
LUMCON,ioos:station:LUMCON:101:1,2015-05-03T05:00:00Z,29.2533,-90.6633,1.47,2.21,1111122 
LUMCON,ioos:station:LUMCON:101:1,2015-05-03T05:15:00Z,29.2533,-90.6633,1.48,2.22,1111122 
LUMCON,ioos:station:LUMCON:101:1,2015-05-03T05:30:00Z,29.2533,-90.6633,1.49,2.23,1111122 
LUMCON,ioos:station:LUMCON:101:1,2015-05-03T05:45:00Z,29.2533,-90.6633,1.49,2.24,1111122 
LUMCON,ioos:station:LUMCON:101:1,2015-05-03T06:00:00Z,29.2533,-90.6633,1.5,2.26,1111122 
LUMCON,ioos:station:LUMCON:101:1,2015-05-03T06:15:00Z,29.2533,-90.6633,1.5,2.29,1111122 
LUMCON,ioos:station:LUMCON:101:1,2015-05-03T06:30:00Z,29.2533,-90.6633,1.51,2.3,1111122 
LUMCON,ioos:station:LUMCON:101:1,2015-05-03T06:45:00Z,29.2533,-90.6633,1.51,2.33,1111122 
LUMCON,ioos:station:LUMCON:101:1,2015-05-03T07:00:00Z,29.2533,-90.6633,1.51,2.35,1111122 
LUMCON,ioos:station:LUMCON:101:1,2015-05-03T07:15:00Z,29.2533,-90.6633,1.52,2.38,1111122 
LUMCON,ioos:station:LUMCON:101:1,2015-05-03T07:30:00Z,29.2533,-90.6633,1.52,2.38,1111122 
LUMCON,ioos:station:LUMCON:101:1,2015-05-03T07:45:00Z,29.2533,-90.6633,1.52,2.38,1111122 
LUMCON,ioos:station:LUMCON:101:1,2015-05-03T08:00:00Z,29.2533,-90.6633,1.52,2.38,1111122 
LUMCON,ioos:station:LUMCON:101:1,2015-05-03T08:15:00Z,29.2533,-90.6633,1.52,2.39,1111122 
LUMCON,ioos:station:LUMCON:101:1,2015-05-03T08:30:00Z,29.2533,-90.6633,1.53,2.44,1111122 
LUMCON,ioos:station:LUMCON:101:1,2015-05-03T08:45:00Z,29.2533,-90.6633,1.53,2.5,1111122 
LUMCON,ioos:station:LUMCON:101:1,2015-05-03T09:00:00Z,29.2533,-90.6633,1.54,2.55,1111122 
LUMCON,ioos:station:LUMCON:101:1,2015-05-03T09:15:00Z,29.2533,-90.6633,1.54,2.57,1111122 
LUMCON,ioos:station:LUMCON:101:1,2015-05-03T09:30:00Z,29.2533,-90.6633,1.54,2.57,1111122 
LUMCON,ioos:station:LUMCON:101:1,2015-05-03T09:45:00Z,29.2533,-90.6633,1.54,2.58,1111122 
LUMCON,ioos:station:LUMCON:101:1,2015-05-03T10:00:00Z,29.2533,-90.6633,1.54,2.59,1111122 
LUMCON,ioos:station:LUMCON:101:1,2015-05-03T10:15:00Z,29.2533,-90.6633,1.53,2.56,1111122 
LUMCON,ioos:station:LUMCON:101:1,2015-05-03T10:30:00Z,29.2533,-90.6633,1.53,2.58,1111122 
LUMCON,ioos:station:LUMCON:101:1,2015-05-03T10:45:00Z,29.2533,-90.6633,1.54,2.56,1111122 
LUMCON,ioos:station:LUMCON:101:1,2015-05-03T11:00:00Z,29.2533,-90.6633,1.53,2.58,1111122 
LUMCON,ioos:station:LUMCON:101:1,2015-05-03T11:15:00Z,29.2533,-90.6633,1.53,2.53,1111122 
LUMCON,ioos:station:LUMCON:101:1,2015-05-03T11:30:00Z,29.2533,-90.6633,1.53,2.5,1111122 
LUMCON,ioos:station:LUMCON:101:1,2015-05-03T11:45:00Z,29.2533,-90.6633,1.53,2.56,1111122 
LUMCON,ioos:station:LUMCON:101:1,2015-05-03T12:00:00Z,29.2533,-90.6633,1.53,2.54,1111122 
LUMCON,ioos:station:LUMCON:101:1,2015-05-03T12:15:00Z,29.2533,-90.6633,1.53,2.54,1111122 
LUMCON,ioos:station:LUMCON:101:1,2015-05-03T12:30:00Z,29.2533,-90.6633,1.53,2.55,1111122 
LUMCON,ioos:station:LUMCON:101:1,2015-05-03T12:45:00Z,29.2533,-90.6633,1.52,2.58,1111122 
LUMCON,ioos:station:LUMCON:101:1,2015-05-03T13:00:00Z,29.2533,-90.6633,1.52,2.58,1111122 
LUMCON,ioos:station:LUMCON:101:1,2015-05-03T13:15:00Z,29.2533,-90.6633,1.52,2.28,1111122 
LUMCON,ioos:station:LUMCON:101:1,2015-05-03T13:30:00Z,29.2533,-90.6633,1.52,2.31,1111122 
LUMCON,ioos:station:LUMCON:101:1,2015-05-03T13:45:00Z,29.2533,-90.6633,1.52,2.31,1111122 
LUMCON,ioos:station:LUMCON:101:1,2015-05-03T14:00:00Z,29.2533,-90.6633,1.51,2.28,1111122 
LUMCON,ioos:station:LUMCON:101:1,2015-05-03T14:15:00Z,29.2533,-90.6633,1.51,2.3,1111122 
LUMCON,ioos:station:LUMCON:101:1,2015-05-03T14:30:00Z,29.2533,-90.6633,1.5,2.32,1111122 
LUMCON,ioos:station:LUMCON:101:1,2015-05-03T14:45:00Z,29.2533,-90.6633,1.5,2.42,1111122 
LUMCON,ioos:station:LUMCON:101:1,2015-05-03T15:00:00Z,29.2533,-90.6633,1.49,2.29,1111122 
LUMCON,ioos:station:LUMCON:101:1,2015-05-03T15:15:00Z,29.2533,-90.6633,1.48,2.27,1111122 
LUMCON,ioos:station:LUMCON:101:1,2015-05-03T15:30:00Z,29.2533,-90.6633,1.47,2.15,1111122 
LUMCON,ioos:station:LUMCON:101:1,2015-05-03T15:45:00Z,29.2533,-90.6633,1.46,2.21,1111122 
LUMCON,ioos:station:LUMCON:101:1,2015-05-03T16:00:00Z,29.2533,-90.6633,1.45,2.18,1111122 
LUMCON,ioos:station:LUMCON:101:1,2015-05-03T16:15:00Z,29.2533,-90.6633,1.43,2.12,1111122 
LUMCON,ioos:station:LUMCON:101:1,2015-05-03T16:30:00Z,29.2533,-90.6633,1.42,2.13,1111122 
LUMCON,ioos:station:LUMCON:101:1,2015-05-03T16:45:00Z,29.2533,-90.6633,1.41,2.14,1111122 
LUMCON,ioos:station:LUMCON:101:1,2015-05-03T17:00:00Z,29.2533,-90.6633,1.4,2.14,1111122 
LUMCON,ioos:station:LUMCON:101:1,2015-05-03T17:15:00Z,29.2533,-90.6633,1.39,2.14,1111122 
LUMCON,ioos:station:LUMCON:101:1,2015-05-03T17:30:00Z,29.2533,-90.6633,1.37,2.16,1111122 
LUMCON,ioos:station:LUMCON:101:1,2015-05-03T17:45:00Z,29.2533,-90.6633,1.36,2.11,1111122 
LUMCON,ioos:station:LUMCON:101:1,2015-05-03T18:00:00Z,29.2533,-90.6633,1.35,2.11,1111122 
LUMCON,ioos:station:LUMCON:101:1,2015-05-03T18:15:00Z,29.2533,-90.6633,1.34,2.1,1111122 
LUMCON,ioos:station:LUMCON:101:1,2015-05-03T18:30:00Z,29.2533,-90.6633,1.32,2.2,1111122 
LUMCON,ioos:station:LUMCON:101:1,2015-05-03T18:45:00Z,29.2533,-90.6633,1.31,2.22,1111122 
LUMCON,ioos:station:LUMCON:101:1,2015-05-03T19:00:00Z,29.2533,-90.6633,1.3,2.22,1111122 
LUMCON,ioos:station:LUMCON:101:1,2015-05-03T19:15:00Z,29.2533,-90.6633,1.29,2.26,1111122 
LUMCON,ioos:station:LUMCON:101:1,2015-05-03T19:30:00Z,29.2533,-90.6633,1.28,2.27,1111122 